Change the Weather History Date:

Friday, December 7, 2012

  Actual Average Record
Temperature  
Mean Temperature 84 °F -  
Max Temperature 88 °F 83 °F 88 °F (2012)
Min Temperature 79 °F 76 °F 73 °F (2013)
Cooling Degree Days 18    
Growing Degree Days 34 (Base 50)    
Moisture  
Dew Point 74 °F    
Average Humidity 76    
Maximum Humidity 84    
Minimum Humidity 65    
Precipitation  
Precipitation 0.00 in - - ()
Sea Level Pressure  
Sea Level Pressure 30.00 in    
Wind  
Wind Speed 8 mph (ENE)    
Max Wind Speed 17 mph    
Max Gust Speed -    
Visibility 10 miles    
Events Rain    
Averages and records for this station are not official NWS values.
T = Trace of Precipitation, MM = Missing Value Source: NWS Daily Summary

Daily Weather History Graph

Daily Weather History Graph

Search for Another Location

Airport or City:

Trip Planner

Search our weather history database for the weather conditions in past years. The results will help you decide how hot, cold, wet, or windy it might be!

Date:

Astronomy

Dec. 07, 2012 Rise Set
Actual Time 6:30 AM ChST 5:46 PM ChST
Civil Twilight 6:07 AM ChST 6:09 PM ChST
Nautical Twilight 5:40 AM ChST 6:36 PM ChST
Astronomical Twilight 5:14 AM ChST 7:02 PM ChST
Moon 12:06 AM ChST (12/7) 12:30 PM ChST (12/7)
Length of Visible Light 12h 02m
Length of Day
11h 15m
Last Quarter, 45% of the Moon is Illuminated
Dec 7
Last Quarter
Dec 13
New
Dec 20
First Quarter
Dec 28
Full
Jan 5
Last Quarter

Hourly Weather History & Observations

Time (ChST) Temp. Heat Index Dew Point Humidity Pressure Visibility Wind Dir Wind Speed Gust Speed Precip Events Conditions
12:54 AM 82.0 °F 87.9 °F 73.9 °F 76% 30.01 in 10.0 mi East 5.8 mph - N/A   Overcast
1:54 AM 80.1 °F 84.5 °F 73.9 °F 81% 30.00 in 10.0 mi East 4.6 mph - N/A   Mostly Cloudy
2:54 AM 80.1 °F 84.5 °F 73.9 °F 81% 29.99 in 10.0 mi East 5.8 mph - N/A   Scattered Clouds
3:54 AM 79.0 °F - 73.0 °F 82% 29.98 in 10.0 mi East 3.5 mph - N/A   Mostly Cloudy
4:54 AM 79.0 °F - 73.9 °F 84% 29.98 in 10.0 mi NNW 3.5 mph - N/A   Mostly Cloudy
5:54 AM 79.0 °F - 73.9 °F 84% 29.99 in 10.0 mi NE 5.8 mph - N/A   Mostly Cloudy
6:54 AM 79.0 °F - 73.9 °F 84% 30.01 in 10.0 mi NE 4.6 mph - N/A   Mostly Cloudy
7:54 AM 82.9 °F 90.8 °F 75.9 °F 79% 30.02 in 10.0 mi NE 5.8 mph - N/A   Scattered Clouds
8:54 AM 84.9 °F 93.3 °F 75.0 °F 72% 30.04 in 10.0 mi NE 11.5 mph - N/A   Scattered Clouds
9:54 AM 87.1 °F 95.4 °F 73.9 °F 65% 30.04 in 10.0 mi NE 11.5 mph - N/A   Scattered Clouds
10:54 AM 87.1 °F 96.3 °F 75.0 °F 67% 30.04 in 10.0 mi ENE 12.7 mph - N/A   Scattered Clouds
11:54 AM 87.1 °F 95.4 °F 73.9 °F 65% 30.02 in 10.0 mi ENE 15.0 mph - N/A   Scattered Clouds
12:54 PM 88.0 °F 97.5 °F 75.0 °F 65% 30.00 in 10.0 mi NE 15.0 mph - N/A   Scattered Clouds
1:54 PM 87.1 °F 96.3 °F 75.0 °F 67% 29.97 in 10.0 mi NE 12.7 mph - N/A   Scattered Clouds
2:54 PM 84.9 °F 93.3 °F 75.0 °F 72% 29.97 in 10.0 mi ENE 15.0 mph - 0.00 in Rain Light Rain
3:54 PM 84.0 °F 91.2 °F 73.9 °F 72% 29.97 in 10.0 mi ENE 17.3 mph - N/A   Scattered Clouds
4:54 PM 82.9 °F 89.4 °F 73.9 °F 74% 29.97 in 10.0 mi ENE 13.8 mph - N/A   Scattered Clouds
5:54 PM 81.0 °F 86.2 °F 73.9 °F 79% 29.99 in 10.0 mi NE 12.7 mph - N/A   Scattered Clouds
6:54 PM 81.0 °F 86.2 °F 73.9 °F 79% 29.99 in 10.0 mi ENE 13.8 mph - N/A   Scattered Clouds
7:54 PM 81.0 °F 85.8 °F 73.0 °F 77% 30.01 in 10.0 mi East 13.8 mph - N/A   Scattered Clouds
8:54 PM 81.0 °F 85.8 °F 73.0 °F 77% 30.02 in 10.0 mi ENE 10.4 mph - N/A   Scattered Clouds
9:54 PM 81.0 °F 85.8 °F 73.0 °F 77% 30.02 in 10.0 mi East 11.5 mph - N/A   Partly Cloudy
10:54 PM 81.0 °F 86.2 °F 73.9 °F 79% 30.01 in 10.0 mi East 5.8 mph - N/A   Scattered Clouds
11:54 PM 80.1 °F 84.5 °F 73.9 °F 81% 30.00 in 10.0 mi ESE 5.8 mph - N/A   Overcast